NOAA NWS Hourly Roundups by Site

Regional Weather Roundup for Omaha, NE

To Select Another Site Choose from List

Select Site:  

000
ASUS43 KOAX 211810
RWRNE

WEATHER ROUNDUP FOR NEBRASKA
NATIONAL WEATHER SERVICE OMAHA NE
100 PM CDT SUN APR 21 2019

NOTES: SATELLITE DATA IS BEING USED TO AUGMENT CLOUD COVER ABOVE
       12000 FEET.
       "FAIR" INDICATES FEW OR NO CLOUDS BELOW 12,000 FEET WITH NO
       SIGNIFICANT WEATHER AND/OR OBSTRUCTIONS TO VISIBILITY.


NEZ001>004-019>022-054>056-211900-
NEBRASKA PANHANDLE

CITY           SKY/WX    TMP DP  RH WIND       PRES   REMARKS
SCOTTSBLUFF    LGT RAIN  52  47  83 N8        29.90R
6HR MIN TEMP:  50; 6HR MAX TEMP:  54; 6HR PCP: TRACE;

ALLIANCE       CLOUDY    51  46  83 NW18      29.84F
6HR MIN TEMP:  48; 6HR MAX TEMP:  52; 6HR PCP: TRACE;

CHADRON        CLOUDY    52  46  80 NE10      29.90R
6HR MIN TEMP:  46; 6HR MAX TEMP:  52; 6HR PCP: TRACE;

GORDON         CLOUDY    49  47  91 NW13      29.87R
6HR MIN TEMP:  47; 6HR MAX TEMP:  52; 6HR PCP:  0.10;

KIMBALL        CLOUDY    56  48  75 N23       29.85S
SIDNEY         FAIR      53  46  77 N21G31    29.82R
6HR MIN TEMP:  50; 6HR MAX TEMP:  60;

$$

NEZ057>060-069>072-079>082-211900-
SOUTHWEST NEBRASKA

CITY           SKY/WX    TMP DP  RH WIND       PRES   REMARKS
NORTH PLATTE   FAIR      63  50  62 N21       29.68S
6HR MIN TEMP:  51; 6HR MAX TEMP:  69;

IMPERIAL       FAIR      69  44  40 N17G28    29.70R
6HR MIN TEMP:  48; 6HR MAX TEMP:  70;

LEXINGTON      FAIR      73  51  46 NE10      29.63F
MCCOOK         FAIR      75  50  41 VRB6      29.64R
6HR MIN TEMP:  48; 6HR MAX TEMP:  75;

OGALLALA       FAIR      65  49  55 N25G31    29.73F
$$

NEZ005>010-023>029-035>040-094-211900-
NORTH CENTRAL NEBRASKA

CITY           SKY/WX    TMP DP  RH WIND       PRES   REMARKS
VALENTINE      FAIR      61  45  55 N24G37    29.79F
6HR MIN TEMP:  50; 6HR MAX TEMP:  61;

AINSWORTH      FAIR      58  47  65 N21G29    29.77F
BROKEN BOW     FAIR      73  51  46 N9G22     29.68S
6HR MIN TEMP:  48; 6HR MAX TEMP:  73;

O`NEILL        FAIR      64  51  64 N7        29.71S
ORD            FAIR      73  53  49 VRB3      29.66S
6HR MIN TEMP:  46; 6HR MAX TEMP:  74;

THEDFORD       FAIR      59  48  67 N14G21    29.77S
$$

NEZ041-046>049-061>064-073>077-083>087-211900-
SOUTH CENTRAL NEBRASKA

CITY           SKY/WX    TMP DP  RH WIND       PRES   REMARKS
GRAND ISLAND   FAIR      73  52  47 SE17G25   29.67R
6HR MIN TEMP:  58; 6HR MAX TEMP:  75;

AURORA         FAIR      76  51  40 S17G28    29.66S
HASTINGS       FAIR      74  52  46 S15G26    29.65S
6HR MIN TEMP:  58; 6HR MAX TEMP:  74;

HEBRON         FAIR      78  52  40 S18G28    29.67S
HOLDREGE       FAIR      74  52  46 SE10      29.62F
KEARNEY        FAIR      73  51  46 S9        29.65S
YORK           FAIR      75  50  41 CALM      29.67R
$$

NEZ011>018-030>034-042>045-211900-
NORTHEAST NEBRASKA

CITY           SKY/WX    TMP DP  RH WIND       PRES   REMARKS
NORFOLK        FAIR      73  50  44 SE14      29.66F
6HR MIN TEMP:  49; 6HR MAX TEMP:  74;

ALBION         FAIR      73  51  47 S7        29.65F
BLAIR          FAIR      76  49  38 S17G23    29.71S
COLUMBUS       FAIR      71  51  49 SE15      29.66F
FREMONT        FAIR      77  48  36 S13G18    29.70R
TEKAMAH        FAIR      75  51  43 SE17      29.67F
6HR MIN TEMP:  54; 6HR MAX TEMP:  77;

WAYNE          FAIR      71  42  34 S12G17    29.69R
$$

NEZ050>053-065>068-078-088>093-211900-
SOUTHEAST NEBRASKA

CITY           SKY/WX    TMP DP  RH WIND       PRES   REMARKS
LINCOLN        FAIR      80  53  39 S15G26    29.68F
6HR MIN TEMP:  56; 6HR MAX TEMP:  80;

OMAHA EPPLEY   PTSUNNY   76  49  38 SE20      29.70F
6HR MIN TEMP:  61; 6HR MAX TEMP:  79;

BEATRICE       FAIR      76  53  44 SE18G24   29.67F
FALLS CITY     FAIR      83  50  31 S22G38    29.72F
6HR MIN TEMP:  59; 6HR MAX TEMP:  83;

NEBRASKA CITY  FAIR      80  46  30 S26       29.72S
PLATTSMOUTH    FAIR      77  52  41 SE14G24   29.72F
$$

NEZ044-045-051>053-067-211900-
OMAHA AREA

CITY           SKY/WX    TMP DP  RH WIND       PRES   REMARKS
OMAHA EPPLEY   PTSUNNY   76  49  38 SE20      29.70F
6HR MIN TEMP:  61; 6HR MAX TEMP:  79;

BLAIR          FAIR      76  49  38 S17G23    29.71S
FREMONT        FAIR      77  48  36 S13G18    29.70R
MILLARD        FAIR      75  53  45 SE13G20   29.70F
OFFUTT AFB     MOSUNNY   73  50  43 SE13      29.72S
PLATTSMOUTH    FAIR      77  52  41 SE14G24   29.72F
WAHOO          FAIR      77  49  37 S15G21    29.69F
$$


 

View Past Reports for Omaha, NE.

Products Courtesy of NOAA-NWS
NWS Information Parsing Script by Ken True at Saratoga Weather - Script by SE Lincoln Weather.